• In Latvia
  • List of Countries
  • For 7 days
  • Water Temperature
  • Satellite Maps
  • Weather Map
  • Weather Widgets
  • user-avatar
    Login

    Hourly Weather Winchester

    Today, 20 November, Monday

    Time Temperature Precipitation Wind Pressure Humidity
    00:00 +6°C° 0 mm 4 mps 760 mmHg 91%
    01:00 +7°C° 0.1 mm 4 mps 760 mmHg 92%
    02:00 +8°C° 0.1 mm 5 mps 759 mmHg 94%
    03:00 +8°C° 0.1 mm 5 mps 759 mmHg 95%
    04:00 +8°C° 0 mm 5 mps 759 mmHg 94%
    05:00 +8°C° 0 mm 6 mps 758 mmHg 92%
    06:00 +8°C° 0 mm 6 mps 757 mmHg 90%
    07:00 +9°C° 0 mm 6 mps 757 mmHg 89%
    08:00 +9°C° 0 mm 7 mps 757 mmHg 89%
    09:00 +9°C° 0 mm 7 mps 757 mmHg 88%
    10:00 +10°C° 0.1 mm 8 mps 757 mmHg 88%
    11:00 +10°C° 0.1 mm 8 mps 757 mmHg 88%
    12:00 +11°C° 0.1 mm 8 mps 756 mmHg 88%
    13:00 +11°C° 0.1 mm 8 mps 756 mmHg 88%
    14:00 +11°C° 0.1 mm 8 mps 756 mmHg 89%
    15:00 +11°C° 0.1 mm 8 mps 755 mmHg 90%
    16:00 +11°C° 0.2 mm 7 mps 755 mmHg 91%
    17:00 +11°C° 0.2 mm 7 mps 755 mmHg 92%
    18:00 +11°C° 0.2 mm 7 mps 755 mmHg 92%
    19:00 +11°C° 0.6 mm 7 mps 755 mmHg 93%
    20:00 +11°C° 0.6 mm 6 mps 755 mmHg 94%
    21:00 +11°C° 0.6 mm 6 mps 755 mmHg 94%
    22:00 +11°C° 0.2 mm 6 mps 755 mmHg 94%
    23:00 +11°C° 0.2 mm 6 mps 755 mmHg 94%

    Tomorrow, 21 November, Tuesday

    Time Temperature Precipitation Wind Pressure Humidity
    00:00 +11°C° 0.2 mm 6 mps 755 mmHg 94%
    01:00 +11°C° 0 mm 6 mps 755 mmHg 94%
    02:00 +11°C° 0 mm 6 mps 754 mmHg 94%
    03:00 +11°C° 0 mm 6 mps 754 mmHg 94%
    04:00 +10°C° 0 mm 6 mps 754 mmHg 94%
    05:00 +10°C° 0 mm 5 mps 754 mmHg 94%
    06:00 +10°C° 0 mm 5 mps 753 mmHg 95%
    07:00 +10°C° 0 mm 5 mps 753 mmHg 94%
    08:00 +10°C° 0 mm 5 mps 753 mmHg 94%
    09:00 +10°C° 0 mm 5 mps 753 mmHg 94%
    10:00 +11°C° 0 mm 6 mps 753 mmHg 91%
    11:00 +11°C° 0 mm 7 mps 753 mmHg 89%
    12:00 +11°C° 0 mm 7 mps 752 mmHg 87%
    13:00 +12°C° 0.1 mm 7 mps 752 mmHg 87%
    14:00 +12°C° 0.1 mm 7 mps 751 mmHg 87%
    15:00 +12°C° 0.1 mm 7 mps 751 mmHg 87%
    16:00 +12°C° 0 mm 7 mps 750 mmHg 87%
    17:00 +11°C° 0 mm 8 mps 750 mmHg 87%
    18:00 +11°C° 0 mm 8 mps 750 mmHg 86%
    19:00 +11°C° 0 mm 8 mps 749 mmHg 86%
    20:00 +11°C° 0 mm 8 mps 749 mmHg 85%
    21:00 +11°C° 0 mm 8 mps 749 mmHg 85%
    22:00 +11°C° 0.1 mm 8 mps 748 mmHg 85%
    23:00 +12°C° 0.1 mm 8 mps 748 mmHg 85%

    Day after tomorrow, 22 November, Wednesday

    Time Temperature Precipitation Wind Pressure Humidity
    00:00 +12°C° 0.1 mm 9 mps 747 mmHg 85%
    01:00 +12°C° 0.1 mm 9 mps 747 mmHg 85%
    02:00 +12°C° 0.1 mm 9 mps 746 mmHg 85%
    03:00 +12°C° 0.1 mm 10 mps 746 mmHg 85%
    04:00 +12°C° 0.1 mm 10 mps 745 mmHg 85%
    05:00 +12°C° 0.1 mm 10 mps 745 mmHg 86%
    06:00 +12°C° 0.1 mm 10 mps 744 mmHg 86%
    07:00 +12°C° 0 mm 10 mps 744 mmHg 82%
    08:00 +12°C° 0 mm 10 mps 744 mmHg 78%
    09:00 +12°C° 0 mm 10 mps 743 mmHg 74%
    10:00 +13°C° 0 mm 11 mps 742 mmHg 73%
    11:00 +13°C° 0 mm 11 mps 742 mmHg 71%
    12:00 +13°C° 0 mm 12 mps 741 mmHg 69%
    13:00 +13°C° 0.5 mm 12 mps 740 mmHg 71%
    14:00 +13°C° 0.5 mm 12 mps 740 mmHg 74%
    15:00 +13°C° 0.5 mm 12 mps 739 mmHg 76%
    16:00 +12°C° 0.8 mm 11 mps 739 mmHg 79%
    17:00 +12°C° 0.8 mm 11 mps 738 mmHg 82%
    18:00 +12°C° 0.8 mm 11 mps 738 mmHg 84%
    19:00 +12°C° 0.6 mm 11 mps 737 mmHg 85%
    20:00 +12°C° 0.6 mm 11 mps 737 mmHg 85%
    21:00 +13°C° 0.6 mm 11 mps 737 mmHg 85%
    22:00 +12°C° 0.4 mm 10 mps 737 mmHg 86%
    23:00 +12°C° 0.4 mm 10 mps 737 mmHg 87%

    23 November, Thursday

    Time Temperature Precipitation Wind Pressure Humidity
    00:00 +12°C° 0.4 mm 9 mps 737 mmHg 87%
    01:00 +12°C° 0.1 mm 10 mps 738 mmHg 87%
    02:00 +12°C° 0.1 mm 10 mps 739 mmHg 86%
    03:00 +12°C° 0.1 mm 10 mps 740 mmHg 86%
    04:00 +11°C° 0.1 mm 9 mps 741 mmHg 85%
    05:00 +10°C° 0.1 mm 8 mps 742 mmHg 85%
    06:00 +10°C° 0.1 mm 7 mps 743 mmHg 84%
    07:00 +9°C° 0 mm 7 mps 744 mmHg 82%
    08:00 +9°C° 0 mm 7 mps 745 mmHg 80%
    09:00 +8°C° 0 mm 7 mps 745 mmHg 78%
    10:00 +9°C° 0 mm 8 mps 746 mmHg 75%
    11:00 +10°C° 0 mm 8 mps 746 mmHg 73%
    12:00 +11°C° 0 mm 9 mps 747 mmHg 70%
    13:00 +12°C° 0 mm 9 mps 746 mmHg 74%
    14:00 +12°C° 0 mm 10 mps 746 mmHg 78%
    15:00 +12°C° 0 mm 10 mps 746 mmHg 82%
    16:00 +12°C° 1.6 mm 10 mps 746 mmHg 84%
    17:00 +12°C° 1.6 mm 10 mps 746 mmHg 86%
    18:00 +12°C° 1.6 mm 9 mps 746 mmHg 88%
    19:00 +12°C° 0.2 mm 8 mps 747 mmHg 89%
    20:00 +11°C° 0.2 mm 7 mps 747 mmHg 91%
    21:00 +12°C° 0.2 mm 5 mps 748 mmHg 92%
    22:00 +11°C° 0.3 mm 4 mps 748 mmHg 93%
    23:00 +11°C° 0.3 mm 3 mps 748 mmHg 93%

    24 November, Friday

    Time Temperature Precipitation Wind Pressure Humidity
    00:00 +10°C° 0.3 mm 2 mps 747 mmHg 94%
    01:00 +10°C° 3.1 mm 3 mps 747 mmHg 94%
    02:00 +10°C° 3.1 mm 3 mps 746 mmHg 95%
    03:00 +8°C° 3.1 mm 4 mps 746 mmHg 95%
    04:00 +8°C° 1.4 mm 4 mps 746 mmHg 95%
    05:00 +8°C° 1.4 mm 3 mps 746 mmHg 95%
    06:00 +8°C° 1.4 mm 3 mps 746 mmHg 94%
    07:00 +8°C° 0.1 mm 2 mps 746 mmHg 94%
    08:00 +8°C° 0.1 mm 2 mps 747 mmHg 93%
    09:00 +9°C° 0.1 mm 1 mps 747 mmHg 93%
    10:00 +9°C° 0 mm 1 mps 747 mmHg 91%
    11:00 +10°C° 0 mm 1 mps 747 mmHg 89%
    12:00 +10°C° 0 mm 1 mps 747 mmHg 87%
    13:00 +10°C° 0.1 mm 1 mps 747 mmHg 88%
    14:00 +9°C° 0.1 mm 2 mps 747 mmHg 89%
    15:00 +9°C° 0.1 mm 2 mps 747 mmHg 90%
    16:00 +9°C° 0.2 mm 3 mps 748 mmHg 90%
    17:00 +9°C° 0.2 mm 3 mps 748 mmHg 90%
    18:00 +7°C° 0.2 mm 4 mps 748 mmHg 90%
    19:00 +6°C° 0 mm 4 mps 749 mmHg 89%
    20:00 +6°C° 0 mm 4 mps 750 mmHg 89%
    21:00 +5°C° 0 mm 4 mps 750 mmHg 89%
    22:00 +4°C° 0 mm 4 mps 751 mmHg 90%
    23:00 +4°C° 0 mm 4 mps 752 mmHg 90%

    25 November, Saturday

    Time Temperature Precipitation Wind Pressure Humidity
    00:00 +3°C° 0 mm 5 mps 752 mmHg 90%
    01:00 +3°C° 0 mm 4 mps 753 mmHg 90%
    02:00 +3°C° 0 mm 4 mps 753 mmHg 89%
    03:00 +1°C° 0 mm 4 mps 754 mmHg 89%
    04:00 +2°C° 0 mm 3 mps 754 mmHg 88%
    05:00 +1°C° 0 mm 3 mps 755 mmHg 87%
    06:00 +1°C° 0 mm 3 mps 756 mmHg 87%
    07:00 +1°C° 0 mm 3 mps 756 mmHg 85%
    08:00 +2°C° 0 mm 3 mps 757 mmHg 83%
    09:00 +2°C° 0 mm 3 mps 758 mmHg 80%
    10:00 +3°C° 0 mm 4 mps 758 mmHg 75%
    11:00 +3°C° 0 mm 5 mps 759 mmHg 69%
    12:00 +5°C° 0 mm 5 mps 759 mmHg 63%
    13:00 +5°C° 0 mm 5 mps 760 mmHg 66%
    14:00 +5°C° 0 mm 5 mps 760 mmHg 69%
    15:00 +5°C° 0 mm 4 mps 760 mmHg 71%
    16:00 +4°C° 0 mm 4 mps 761 mmHg 73%
    17:00 +3°C° 0 mm 4 mps 761 mmHg 75%
    18:00 +1°C° 0 mm 4 mps 762 mmHg 77%
    19:00 0°C° 0 mm 4 mps 762 mmHg 77%
    20:00 0°C° 0 mm 5 mps 763 mmHg 76%
    21:00 0°C° 0 mm 5 mps 763 mmHg 76%
    22:00 0°C° 0 mm 5 mps 763 mmHg 76%
    23:00 0°C° 0 mm 5 mps 763 mmHg 76%
    Show more